Time,TemperatureF,DewpointF,PressureIn,WindDirection,WindDirectionDegrees,WindSpeedMPH,WindSpeedGustMPH,Humidity,HourlyPrecipIn,Conditions,Clouds,dailyrainin,SoftwareType,DateUTC
2013-08-18 00:01:00,60.6,52.7,30.69,NNE,22,0.0,0.0,75,0.00,,,0.00,WUHU21623XXSP,2013-08-18 04:01:00,
2013-08-18 00:06:00,60.4,52.5,30.69,NNE,22,0.0,0.0,75,0.00,,,0.00,WUHU21623XXSP,2013-08-18 04:06:00,
2013-08-18 00:11:00,60.4,52.5,30.69,NNE,22,0.0,0.0,75,0.00,,,0.00,WUHU21623XXSP,2013-08-18 04:11:00,
2013-08-18 00:16:00,60.4,52.9,30.69,NNE,22,0.0,0.0,76,0.00,,,0.00,WUHU21623XXSP,2013-08-18 04:16:00,
2013-08-18 00:21:00,60.1,52.5,30.69,NNE,22,0.0,0.0,76,0.00,,,0.00,WUHU21623XXSP,2013-08-18 04:21:00,
2013-08-18 00:26:00,60.1,52.5,30.69,NNE,22,0.0,0.0,76,0.00,,,0.00,WUHU21623XXSP,2013-08-18 04:26:00,
2013-08-18 00:31:00,60.1,52.5,30.69,NNE,22,0.0,0.0,76,0.00,,,0.00,WUHU21623XXSP,2013-08-18 04:31:00,
2013-08-18 00:36:00,60.1,52.5,30.69,NNE,22,0.0,0.0,76,0.00,,,0.00,WUHU21623XXSP,2013-08-18 04:36:00,
2013-08-18 00:41:00,60.1,52.5,30.69,NNE,22,0.0,0.0,76,0.00,,,0.00,WUHU21623XXSP,2013-08-18 04:41:00,
2013-08-18 00:46:00,60.1,52.5,30.69,NNE,22,0.0,0.0,76,0.00,,,0.00,WUHU21623XXSP,2013-08-18 04:46:00,
2013-08-18 00:51:00,60.1,52.5,30.69,NNE,22,0.0,0.0,76,0.00,,,0.00,WUHU21623XXSP,2013-08-18 04:51:00,
2013-08-18 00:56:00,59.9,52.3,30.69,NNE,22,0.0,0.0,76,0.00,,,0.00,WUHU21623XXSP,2013-08-18 04:56:00,
2013-08-18 01:01:00,59.9,52.3,30.69,NNE,22,0.0,0.0,76,0.00,,,0.00,WUHU21623XXSP,2013-08-18 05:01:00,
2013-08-18 01:06:00,59.9,52.3,30.69,NNE,22,0.0,0.0,76,0.00,,,0.00,WUHU21623XXSP,2013-08-18 05:06:00,
2013-08-18 01:11:00,59.7,52.2,30.69,NNE,22,0.0,0.0,76,0.00,,,0.00,WUHU21623XXSP,2013-08-18 05:11:00,
2013-08-18 01:16:00,59.5,52.3,30.69,NNE,22,0.0,0.0,77,0.00,,,0.00,WUHU21623XXSP,2013-08-18 05:16:00,
2013-08-18 01:21:00,59.5,52.3,30.69,NNE,22,0.0,0.0,77,0.00,,,0.00,WUHU21623XXSP,2013-08-18 05:21:00,
2013-08-18 01:26:00,59.5,52.3,30.69,NNE,22,0.0,0.0,77,0.00,,,0.00,WUHU21623XXSP,2013-08-18 05:26:00,
2013-08-18 01:31:00,59.4,52.2,30.69,NNE,22,0.0,0.0,77,0.00,,,0.00,WUHU21623XXSP,2013-08-18 05:31:00,
2013-08-18 01:36:00,59.2,52.3,30.69,NNE,22,0.0,0.0,78,0.00,,,0.00,WUHU21623XXSP,2013-08-18 05:36:00,
2013-08-18 01:41:00,59.2,52.0,30.69,NNE,22,0.0,0.0,77,0.00,,,0.00,WUHU21623XXSP,2013-08-18 05:41:00,
2013-08-18 01:46:00,59.2,52.0,30.69,NNE,22,0.0,0.0,77,0.00,,,0.00,WUHU21623XXSP,2013-08-18 05:46:00,
2013-08-18 01:51:00,59.0,52.2,30.69,NNE,22,0.0,0.0,78,0.00,,,0.00,WUHU21623XXSP,2013-08-18 05:51:00,
2013-08-18 01:56:00,58.8,52.0,30.69,NNE,22,0.0,0.0,78,0.00,,,0.00,WUHU21623XXSP,2013-08-18 05:56:00,
2013-08-18 02:01:00,58.8,52.0,30.69,NNE,22,0.0,0.0,78,0.00,,,0.00,WUHU21623XXSP,2013-08-18 06:01:00,
2013-08-18 02:06:00,58.6,51.8,30.69,NNE,22,0.0,0.0,78,0.00,,,0.00,WUHU21623XXSP,2013-08-18 06:06:00,
2013-08-18 02:11:00,58.5,51.6,30.69,NNE,22,0.0,0.0,78,0.00,,,0.00,WUHU21623XXSP,2013-08-18 06:11:00,
2013-08-18 02:16:00,58.5,51.6,30.69,NNE,22,0.0,0.0,78,0.00,,,0.00,WUHU21623XXSP,2013-08-18 06:16:00,
2013-08-18 02:21:00,58.3,51.4,30.69,NNE,22,0.0,0.0,78,0.00,,,0.00,WUHU21623XXSP,2013-08-18 06:21:00,
2013-08-18 02:26:00,58.1,51.3,30.69,NNE,22,0.0,0.0,78,0.00,,,0.00,WUHU21623XXSP,2013-08-18 06:26:00,
2013-08-18 02:31:00,57.9,51.4,30.70,NNE,22,0.0,0.0,79,0.00,,,0.00,WUHU21623XXSP,2013-08-18 06:31:00,
2013-08-18 02:36:00,57.9,51.4,30.70,NNE,22,0.0,0.0,79,0.00,,,0.00,WUHU21623XXSP,2013-08-18 06:36:00,
2013-08-18 02:41:00,57.9,51.4,30.70,NNE,22,0.0,0.0,79,0.00,,,0.00,WUHU21623XXSP,2013-08-18 06:41:00,
2013-08-18 02:46:00,57.9,51.4,30.69,NNE,22,0.0,0.0,79,0.00,,,0.00,WUHU21623XXSP,2013-08-18 06:46:00,
2013-08-18 02:51:00,57.7,51.3,30.69,NNE,22,0.0,0.0,79,0.00,,,0.00,WUHU21623XXSP,2013-08-18 06:51:00,
2013-08-18 02:56:00,57.6,51.1,30.69,NNE,22,0.0,0.0,79,0.00,,,0.00,WUHU21623XXSP,2013-08-18 06:56:00,
2013-08-18 03:01:00,57.4,50.9,30.69,NNE,22,0.0,0.0,79,0.00,,,0.00,WUHU21623XXSP,2013-08-18 07:01:00,
2013-08-18 03:06:00,57.4,50.9,30.69,NNE,22,0.0,0.0,79,0.00,,,0.00,WUHU21623XXSP,2013-08-18 07:06:00,
2013-08-18 03:11:00,57.0,50.5,30.70,NNE,22,0.0,0.0,79,0.00,,,0.00,WUHU21623XXSP,2013-08-18 07:11:00,
2013-08-18 03:16:00,57.0,50.9,30.69,NNE,22,0.0,0.0,80,0.00,,,0.00,WUHU21623XXSP,2013-08-18 07:16:00,
2013-08-18 03:21:00,57.0,50.9,30.70,NNE,22,0.0,0.0,80,0.00,,,0.00,WUHU21623XXSP,2013-08-18 07:21:00,
2013-08-18 03:26:00,56.8,50.7,30.69,NNE,22,0.0,0.0,80,0.00,,,0.00,WUHU21623XXSP,2013-08-18 07:26:00,
2013-08-18 03:31:00,56.8,50.7,30.69,NNE,22,0.0,0.0,80,0.00,,,0.00,WUHU21623XXSP,2013-08-18 07:31:00,
2013-08-18 03:36:00,56.7,50.5,30.69,NNE,22,0.0,0.0,80,0.00,,,0.00,WUHU21623XXSP,2013-08-18 07:36:00,
2013-08-18 03:41:00,56.5,50.4,30.70,NNE,22,0.0,0.0,80,0.00,,,0.00,WUHU21623XXSP,2013-08-18 07:41:00,
2013-08-18 03:46:00,56.5,50.4,30.70,NNE,22,0.0,0.0,80,0.00,,,0.00,WUHU21623XXSP,2013-08-18 07:46:00,
2013-08-18 03:51:00,56.3,50.2,30.70,NNE,22,0.0,0.0,80,0.00,,,0.00,WUHU21623XXSP,2013-08-18 07:51:00,
2013-08-18 03:56:00,56.3,50.5,30.70,NNE,22,0.0,0.0,81,0.00,,,0.00,WUHU21623XXSP,2013-08-18 07:56:00,
2013-08-18 04:01:00,56.1,50.3,30.69,NNE,22,0.0,0.0,81,0.00,,,0.00,WUHU21623XXSP,2013-08-18 08:01:00,
2013-08-18 04:06:00,56.1,50.3,30.70,NNE,22,0.0,0.0,81,0.00,,,0.00,WUHU21623XXSP,2013-08-18 08:06:00,
2013-08-18 04:11:00,55.9,50.1,30.70,NNE,22,0.0,0.0,81,0.00,,,0.00,WUHU21623XXSP,2013-08-18 08:11:00,
2013-08-18 04:16:00,55.9,50.1,30.70,NNE,22,0.0,0.0,81,0.00,,,0.00,WUHU21623XXSP,2013-08-18 08:16:00,
2013-08-18 04:21:00,55.8,50.0,30.71,NNE,22,0.0,0.0,81,0.00,,,0.00,WUHU21623XXSP,2013-08-18 08:21:00,
2013-08-18 04:26:00,55.6,49.8,30.71,NNE,22,0.0,0.0,81,0.00,,,0.00,WUHU21623XXSP,2013-08-18 08:26:00,
2013-08-18 04:31:00,55.6,49.8,30.70,NNE,22,0.0,0.0,81,0.00,,,0.00,WUHU21623XXSP,2013-08-18 08:31:00,
2013-08-18 04:36:00,55.6,49.8,30.70,NNE,22,0.0,0.0,81,0.00,,,0.00,WUHU21623XXSP,2013-08-18 08:36:00,
2013-08-18 04:41:00,55.4,49.6,30.70,NNE,22,0.0,0.0,81,0.00,,,0.00,WUHU21623XXSP,2013-08-18 08:41:00,
2013-08-18 04:46:00,55.2,49.7,30.70,NNE,22,0.0,0.0,82,0.00,,,0.00,WUHU21623XXSP,2013-08-18 08:46:00,
2013-08-18 04:51:00,55.2,49.7,30.70,NNE,22,0.0,0.0,82,0.00,,,0.00,WUHU21623XXSP,2013-08-18 08:51:00,
2013-08-18 04:56:00,55.2,49.7,30.70,NNE,22,0.0,0.0,82,0.00,,,0.00,WUHU21623XXSP,2013-08-18 08:56:00,
2013-08-18 05:01:00,55.2,50.1,30.71,NNE,22,0.0,0.0,83,0.00,,,0.00,WUHU21623XXSP,2013-08-18 09:01:00,
2013-08-18 05:06:00,55.2,50.1,30.70,NNE,22,0.0,0.0,83,0.00,,,0.00,WUHU21623XXSP,2013-08-18 09:06:00,
2013-08-18 05:11:00,55.0,49.9,30.71,NNE,22,0.0,0.0,83,0.00,,,0.00,WUHU21623XXSP,2013-08-18 09:11:00,
2013-08-18 05:16:00,54.9,49.7,30.71,NNE,22,0.0,0.0,83,0.00,,,0.00,WUHU21623XXSP,2013-08-18 09:16:00,
2013-08-18 05:21:00,54.7,49.6,30.71,NNE,22,0.0,0.0,83,0.00,,,0.00,WUHU21623XXSP,2013-08-18 09:21:00,
2013-08-18 05:26:00,54.7,49.6,30.71,NNE,22,0.0,0.0,83,0.00,,,0.00,WUHU21623XXSP,2013-08-18 09:26:00,
2013-08-18 05:31:00,54.5,49.4,30.71,NNE,22,0.0,0.0,83,0.00,,,0.00,WUHU21623XXSP,2013-08-18 09:31:00,
2013-08-18 05:36:00,54.3,49.2,30.71,NNE,22,0.0,0.0,83,0.00,,,0.00,WUHU21623XXSP,2013-08-18 09:36:00,
2013-08-18 05:41:00,54.3,49.2,30.71,NNE,22,0.0,0.0,83,0.00,,,0.00,WUHU21623XXSP,2013-08-18 09:41:00,
2013-08-18 05:46:00,54.3,49.2,30.71,NNE,22,0.0,0.0,83,0.00,,,0.00,WUHU21623XXSP,2013-08-18 09:46:00,
2013-08-18 05:51:00,54.3,49.2,30.71,NNE,22,0.0,0.0,83,0.00,,,0.00,WUHU21623XXSP,2013-08-18 09:51:00,
2013-08-18 05:56:00,54.1,49.1,30.71,NNE,22,0.0,0.0,83,0.00,,,0.00,WUHU21623XXSP,2013-08-18 09:56:00,
2013-08-18 06:01:00,54.1,49.1,30.71,NNE,22,0.0,0.0,83,0.00,,,0.00,WUHU21623XXSP,2013-08-18 10:01:00,
2013-08-18 06:06:00,54.0,48.9,30.71,NNE,22,0.0,0.0,83,0.00,,,0.00,WUHU21623XXSP,2013-08-18 10:06:00,
2013-08-18 06:11:00,53.8,48.7,30.71,NNE,22,0.0,0.0,83,0.00,,,0.00,WUHU21623XXSP,2013-08-18 10:11:00,
2013-08-18 06:16:00,53.8,49.0,30.71,NNE,22,0.0,0.0,84,0.00,,,0.00,WUHU21623XXSP,2013-08-18 10:16:00,
2013-08-18 06:21:00,53.6,48.9,30.72,NNE,22,0.0,0.0,84,0.00,,,0.00,WUHU21623XXSP,2013-08-18 10:21:00,
2013-08-18 06:26:00,53.8,49.0,30.71,NNE,22,0.0,0.0,84,0.00,,,0.00,WUHU21623XXSP,2013-08-18 10:26:00,
2013-08-18 06:31:00,53.8,49.4,30.71,NNE,22,0.0,0.0,85,0.00,,,0.00,WUHU21623XXSP,2013-08-18 10:31:00,
2013-08-18 06:36:00,53.8,49.4,30.71,NNE,22,0.0,0.0,85,0.00,,,0.00,WUHU21623XXSP,2013-08-18 10:36:00,
2013-08-18 06:41:00,53.8,49.4,30.72,NNE,22,0.0,0.0,85,0.00,,,0.00,WUHU21623XXSP,2013-08-18 10:41:00,
2013-08-18 06:46:00,53.4,49.0,30.72,NNE,22,0.0,0.0,85,0.00,,,0.00,WUHU21623XXSP,2013-08-18 10:46:00,
2013-08-18 06:51:00,53.2,48.8,30.72,NNE,22,0.0,0.0,85,0.00,,,0.00,WUHU21623XXSP,2013-08-18 10:51:00,
2013-08-18 06:56:00,53.2,48.8,30.71,NNE,22,0.0,0.0,85,0.00,,,0.00,WUHU21623XXSP,2013-08-18 10:56:00,
2013-08-18 07:01:00,52.9,48.5,30.72,NNE,22,0.0,0.0,85,0.00,,,0.00,WUHU21623XXSP,2013-08-18 11:01:00,
2013-08-18 07:05:00,52.7,48.3,30.72,NNE,22,0.0,0.0,85,0.00,,,0.00,WUHU21623XXSP,2013-08-18 11:05:00,
2013-08-18 07:10:00,52.7,48.3,30.72,NNE,22,0.0,0.0,85,0.00,,,0.00,WUHU21623XXSP,2013-08-18 11:10:00,
2013-08-18 07:15:00,52.7,48.3,30.73,NNE,22,0.0,0.0,85,0.00,,,0.00,WUHU21623XXSP,2013-08-18 11:15:00,
2013-08-18 07:20:00,52.5,48.4,30.72,NNE,22,0.0,0.0,86,0.00,,,0.00,WUHU21623XXSP,2013-08-18 11:20:00,
2013-08-18 07:25:00,52.5,48.4,30.72,NNE,22,0.0,0.0,86,0.00,,,0.00,WUHU21623XXSP,2013-08-18 11:25:00,
2013-08-18 07:30:00,52.7,48.6,30.73,NNE,22,0.0,0.0,86,0.00,,,0.00,WUHU21623XXSP,2013-08-18 11:30:00,
2013-08-18 07:35:00,52.7,48.6,30.73,NNE,22,0.0,0.0,86,0.00,,,0.00,WUHU21623XXSP,2013-08-18 11:35:00,
2013-08-18 07:40:00,52.9,48.8,30.73,NNE,22,0.0,0.0,86,0.00,,,0.00,WUHU21623XXSP,2013-08-18 11:40:00,
2013-08-18 07:45:00,52.9,48.8,30.73,NNE,22,0.0,0.0,86,0.00,,,0.00,WUHU21623XXSP,2013-08-18 11:45:00,
2013-08-18 07:50:00,52.9,48.8,30.73,NNE,22,0.0,0.0,86,0.00,,,0.00,WUHU21623XXSP,2013-08-18 11:50:00,
2013-08-18 07:55:00,52.9,48.8,30.73,NNE,22,0.0,0.0,86,0.00,,,0.00,WUHU21623XXSP,2013-08-18 11:55:00,
2013-08-18 08:00:00,52.9,48.8,30.73,NNE,22,0.0,0.0,86,0.00,,,0.00,WUHU21623XXSP,2013-08-18 12:00:00,
2013-08-18 08:05:00,53.2,49.1,30.73,NNE,22,0.0,0.0,86,0.00,,,0.00,WUHU21623XXSP,2013-08-18 12:05:00,
2013-08-18 08:10:00,53.4,49.3,30.73,NNE,22,0.0,0.0,86,0.00,,,0.00,WUHU21623XXSP,2013-08-18 12:10:00,
2013-08-18 08:15:00,53.4,49.3,30.74,NNE,22,0.0,0.0,86,0.00,,,0.00,WUHU21623XXSP,2013-08-18 12:15:00,
2013-08-18 08:20:00,53.8,49.7,30.74,NNE,22,0.0,0.0,86,0.00,,,0.00,WUHU21623XXSP,2013-08-18 12:20:00,
2013-08-18 08:25:00,54.0,49.8,30.74,NNE,22,0.0,0.0,86,0.00,,,0.00,WUHU21623XXSP,2013-08-18 12:25:00,
2013-08-18 08:30:00,54.3,50.2,30.74,NNE,22,0.0,0.0,86,0.00,,,0.00,WUHU21623XXSP,2013-08-18 12:30:00,
2013-08-18 08:35:00,54.7,50.8,30.74,NNE,22,0.0,0.0,87,0.00,,,0.00,WUHU21623XXSP,2013-08-18 12:35:00,
2013-08-18 08:40:00,55.0,51.2,30.74,NNE,22,0.0,0.0,87,0.00,,,0.00,WUHU21623XXSP,2013-08-18 12:40:00,
2013-08-18 08:45:00,55.2,51.4,30.74,NNE,22,0.0,0.0,87,0.00,,,0.00,WUHU21623XXSP,2013-08-18 12:45:00,
2013-08-18 08:50:00,55.8,51.9,30.74,NNE,22,0.0,0.0,87,0.00,,,0.00,WUHU21623XXSP,2013-08-18 12:50:00,
2013-08-18 08:55:00,56.1,52.3,30.74,NNE,22,0.0,0.0,87,0.00,,,0.00,WUHU21623XXSP,2013-08-18 12:55:00,
2013-08-18 09:00:00,56.8,53.0,30.74,NNE,22,0.0,0.0,87,0.00,,,0.00,WUHU21623XXSP,2013-08-18 13:00:00,
2013-08-18 09:05:00,57.2,53.3,30.74,NNE,22,0.0,0.0,87,0.00,,,0.00,WUHU21623XXSP,2013-08-18 13:05:00,
2013-08-18 09:10:00,57.7,53.9,30.74,NNE,22,0.0,0.0,87,0.00,,,0.00,WUHU21623XXSP,2013-08-18 13:10:00,
2013-08-18 09:15:00,58.5,54.9,30.74,NNE,22,0.0,0.0,88,0.00,,,0.00,WUHU21623XXSP,2013-08-18 13:15:00,
2013-08-18 09:20:00,58.8,55.3,30.74,NNE,22,0.0,0.0,88,0.00,,,0.00,WUHU21623XXSP,2013-08-18 13:20:00,
2013-08-18 09:25:00,59.4,55.5,30.74,NNE,22,0.0,0.0,87,0.00,,,0.00,WUHU21623XXSP,2013-08-18 13:25:00,
2013-08-18 09:30:00,60.1,56.2,30.74,West,270,0.0,0.0,87,0.00,,,0.00,WUHU21623XXSP,2013-08-18 13:30:00,
2013-08-18 09:35:00,60.6,56.8,30.74,West,270,0.0,0.0,87,0.00,,,0.00,WUHU21623XXSP,2013-08-18 13:35:00,
2013-08-18 09:40:00,61.0,57.1,30.74,West,270,0.0,0.0,87,0.00,,,0.00,WUHU21623XXSP,2013-08-18 13:40:00,
2013-08-18 09:45:00,61.5,57.5,30.73,WSW,247,0.0,0.0,87,0.00,,,0.00,WUHU21623XXSP,2013-08-18 13:45:00,
2013-08-18 09:50:00,61.9,58.0,30.73,WSW,247,0.0,0.0,87,0.00,,,0.00,WUHU21623XXSP,2013-08-18 13:50:00,
2013-08-18 09:55:00,62.4,58.2,30.73,South,180,0.0,0.0,86,0.00,,,0.00,WUHU21623XXSP,2013-08-18 13:55:00,
2013-08-18 10:00:00,63.5,58.6,30.73,WSW,247,0.0,0.0,84,0.00,,,0.00,WUHU21623XXSP,2013-08-18 14:00:00,
2013-08-18 10:05:00,64.0,59.1,30.72,WSW,247,0.0,0.0,84,0.00,,,0.00,WUHU21623XXSP,2013-08-18 14:05:00,
2013-08-18 10:10:00,64.6,59.3,30.73,South,180,0.0,0.0,83,0.00,,,0.00,WUHU21623XXSP,2013-08-18 14:10:00,
2013-08-18 10:15:00,65.1,59.5,30.73,NE,45,0.0,0.0,82,0.00,,,0.00,WUHU21623XXSP,2013-08-18 14:15:00,
2013-08-18 10:20:00,65.5,59.5,30.72,ENE,67,0.0,0.0,82,0.00,,,0.00,WUHU21623XXSP,2013-08-18 14:20:00,
2013-08-18 10:25:00,65.8,59.9,30.72,ESE,112,0.0,0.0,81,0.00,,,0.00,WUHU21623XXSP,2013-08-18 14:25:00,
2013-08-18 10:30:00,66.4,59.7,30.73,SSE,157,0.0,0.0,80,0.00,,,0.00,WUHU21623XXSP,2013-08-18 14:30:00,
2013-08-18 10:35:00,66.7,59.7,30.73,SSE,157,0.0,0.0,78,0.00,,,0.00,WUHU21623XXSP,2013-08-18 14:35:00,
2013-08-18 10:40:00,67.3,59.8,30.73,SW,225,0.0,0.0,77,0.00,,,0.00,WUHU21623XXSP,2013-08-18 14:40:00,
2013-08-18 10:45:00,68.2,60.4,30.72,WSW,247,0.0,0.0,76,0.00,,,0.00,WUHU21623XXSP,2013-08-18 14:45:00,
2013-08-18 10:50:00,68.5,59.9,30.72,East,90,0.0,0.0,74,0.00,,,0.00,WUHU21623XXSP,2013-08-18 14:50:00,
2013-08-18 10:55:00,68.9,59.9,30.72,NNE,22,0.0,0.0,73,0.00,,,0.00,WUHU21623XXSP,2013-08-18 14:55:00,
2013-08-18 11:00:00,69.6,60.1,30.72,NE,45,0.0,0.0,72,0.00,,,0.00,WUHU21623XXSP,2013-08-18 15:00:00,
2013-08-18 11:05:00,69.8,60.3,30.72,NE,45,0.0,0.0,72,0.00,,,0.00,WUHU21623XXSP,2013-08-18 15:05:00,
2013-08-18 11:10:00,70.2,60.7,30.71,NE,45,0.0,0.0,72,0.00,,,0.00,WUHU21623XXSP,2013-08-18 15:10:00,
2013-08-18 11:15:00,70.5,61.0,30.72,NE,45,0.0,0.0,72,0.00,,,0.00,WUHU21623XXSP,2013-08-18 15:15:00,
2013-08-18 11:20:00,70.9,60.2,30.71,ENE,67,0.0,0.0,69,0.00,,,0.00,WUHU21623XXSP,2013-08-18 15:20:00,
2013-08-18 11:25:00,71.2,60.5,30.71,ENE,67,0.0,0.0,69,0.00,,,0.00,WUHU21623XXSP,2013-08-18 15:25:00,
2013-08-18 11:30:00,71.8,60.6,30.71,ENE,67,0.0,0.0,68,0.00,,,0.00,WUHU21623XXSP,2013-08-18 15:30:00,
2013-08-18 11:35:00,72.1,61.0,30.71,NE,45,0.0,1.6,68,0.00,,,0.00,WUHU21623XXSP,2013-08-18 15:35:00,
2013-08-18 11:40:00,72.3,60.3,30.71,NE,45,0.0,1.6,66,0.00,,,0.00,WUHU21623XXSP,2013-08-18 15:40:00,
2013-08-18 11:45:00,72.7,60.6,30.71,NE,45,0.0,0.0,66,0.00,,,0.00,WUHU21623XXSP,2013-08-18 15:45:00,
2013-08-18 11:50:00,73.0,60.5,30.71,NNE,22,0.0,0.0,65,0.00,,,0.00,WUHU21623XXSP,2013-08-18 15:50:00,
2013-08-18 11:55:00,73.2,60.3,30.71,NNW,337,0.0,0.0,64,0.00,,,0.00,WUHU21623XXSP,2013-08-18 15:55:00,
2013-08-18 12:00:00,73.4,60.4,30.71,NNW,337,0.0,0.0,64,0.00,,,0.00,WUHU21623XXSP,2013-08-18 16:00:00,
2013-08-18 12:05:00,73.6,61.1,30.70,NNW,337,0.0,0.0,65,0.00,,,0.00,WUHU21623XXSP,2013-08-18 16:05:00,
2013-08-18 12:10:00,73.8,60.3,30.70,West,270,0.0,0.0,63,0.00,,,0.00,WUHU21623XXSP,2013-08-18 16:10:00,
2013-08-18 12:15:00,74.1,61.1,30.71,NNE,22,0.0,0.0,64,0.00,,,0.00,WUHU21623XXSP,2013-08-18 16:15:00,
2013-08-18 12:20:00,74.5,61.5,30.70,NNE,22,0.0,0.0,64,0.00,,,0.00,WUHU21623XXSP,2013-08-18 16:20:00,
2013-08-18 12:25:00,74.8,60.6,30.70,NNE,22,0.0,0.0,62,0.00,,,0.00,WUHU21623XXSP,2013-08-18 16:25:00,
2013-08-18 12:30:00,74.8,60.1,30.70,SW,225,0.0,0.0,60,0.00,,,0.00,WUHU21623XXSP,2013-08-18 16:30:00,
2013-08-18 12:35:00,75.0,60.3,30.69,SW,225,0.0,0.0,60,0.00,,,0.00,WUHU21623XXSP,2013-08-18 16:35:00,
2013-08-18 12:40:00,75.4,60.1,30.69,South,180,0.0,0.0,59,0.00,,,0.00,WUHU21623XXSP,2013-08-18 16:40:00,
2013-08-18 12:45:00,75.0,59.8,30.69,North,0,0.0,0.0,59,0.00,,,0.00,WUHU21623XXSP,2013-08-18 16:45:00,
2013-08-18 12:50:00,75.0,59.8,30.69,North,0,0.0,0.0,59,0.00,,,0.00,WUHU21623XXSP,2013-08-18 16:50:00,
2013-08-18 12:55:00,75.0,59.8,30.69,SE,135,0.0,0.0,59,0.00,,,0.00,WUHU21623XXSP,2013-08-18 16:55:00,
2013-08-18 13:00:00,75.0,59.3,30.69,ENE,67,0.0,0.0,58,0.00,,,0.00,WUHU21623XXSP,2013-08-18 17:00:00,
2013-08-18 13:05:00,75.0,59.8,30.69,ENE,67,0.0,0.0,59,0.00,,,0.00,WUHU21623XXSP,2013-08-18 17:05:00,
2013-08-18 13:10:00,75.2,59.9,30.69,SSW,202,0.0,0.0,59,0.00,,,0.00,WUHU21623XXSP,2013-08-18 17:10:00,
2013-08-18 13:15:00,76.1,60.7,30.69,SSW,202,0.0,0.0,59,0.00,,,0.00,WUHU21623XXSP,2013-08-18 17:15:00,
2013-08-18 13:20:00,76.8,60.9,30.68,SSW,202,0.0,0.0,58,0.00,,,0.00,WUHU21623XXSP,2013-08-18 17:20:00,
2013-08-18 13:25:00,77.4,61.4,30.68,SSW,202,0.0,0.0,58,0.00,,,0.00,WUHU21623XXSP,2013-08-18 17:25:00,
2013-08-18 13:30:00,77.9,61.4,30.68,SSW,202,0.0,0.0,57,0.00,,,0.00,WUHU21623XXSP,2013-08-18 17:30:00,
2013-08-18 13:35:00,78.4,61.4,30.68,NNE,22,0.0,0.0,56,0.00,,,0.00,WUHU21623XXSP,2013-08-18 17:35:00,
2013-08-18 13:40:00,78.6,61.1,30.68,NNE,22,0.0,0.0,55,0.00,,,0.00,WUHU21623XXSP,2013-08-18 17:40:00,
2013-08-18 13:45:00,79.0,60.4,30.67,SSW,202,0.0,0.0,53,0.00,,,0.00,WUHU21623XXSP,2013-08-18 17:45:00,
2013-08-18 13:50:00,79.3,60.7,30.67,SSW,202,0.0,0.0,53,0.00,,,0.00,WUHU21623XXSP,2013-08-18 17:50:00,
2013-08-18 13:55:00,79.5,59.8,30.67,SSW,202,0.0,0.0,51,0.00,,,0.00,WUHU21623XXSP,2013-08-18 17:55:00,
2013-08-18 14:00:00,79.5,60.3,30.66,East,90,0.0,0.0,52,0.00,,,0.00,WUHU21623XXSP,2013-08-18 18:00:00,
2013-08-18 14:05:00,79.7,60.0,30.67,North,0,0.0,0.0,51,0.00,,,0.00,WUHU21623XXSP,2013-08-18 18:05:00,
2013-08-18 14:10:00,80.1,60.8,30.66,NW,315,0.0,0.0,52,0.00,,,0.00,WUHU21623XXSP,2013-08-18 18:10:00,
2013-08-18 14:15:00,80.4,60.6,30.66,WSW,247,0.0,0.0,51,0.00,,,0.00,WUHU21623XXSP,2013-08-18 18:15:00,
2013-08-18 14:20:00,80.8,60.9,30.66,WNW,292,0.0,0.0,51,0.00,,,0.00,WUHU21623XXSP,2013-08-18 18:20:00,
2013-08-18 14:25:00,80.8,60.4,30.66,WNW,292,0.0,0.0,50,0.00,,,0.00,WUHU21623XXSP,2013-08-18 18:25:00,
2013-08-18 14:30:00,80.8,60.4,30.66,SSW,202,0.0,0.0,50,0.00,,,0.00,WUHU21623XXSP,2013-08-18 18:30:00,
2013-08-18 14:35:00,80.4,59.5,30.66,NNE,22,0.0,0.0,49,0.00,,,0.00,WUHU21623XXSP,2013-08-18 18:35:00,
2013-08-18 14:40:00,80.2,59.9,30.66,NNE,22,0.0,0.0,50,0.00,,,0.00,WUHU21623XXSP,2013-08-18 18:40:00,
2013-08-18 14:45:00,80.2,59.9,30.65,NE,45,0.0,0.0,50,0.00,,,0.00,WUHU21623XXSP,2013-08-18 18:45:00,
2013-08-18 14:50:00,80.4,58.9,30.66,NNE,22,0.0,0.0,48,0.00,,,0.00,WUHU21623XXSP,2013-08-18 18:50:00,
2013-08-18 14:55:00,80.4,59.5,30.66,NW,315,0.0,0.0,49,0.00,,,0.00,WUHU21623XXSP,2013-08-18 18:55:00,
2013-08-18 15:00:00,80.8,59.2,30.65,West,270,0.0,0.0,48,0.00,,,0.00,WUHU21623XXSP,2013-08-18 19:00:00,
2013-08-18 15:05:00,81.0,60.0,30.65,West,270,0.0,0.0,49,0.00,,,0.00,WUHU21623XXSP,2013-08-18 19:05:00,
2013-08-18 15:10:00,81.1,60.1,30.65,WNW,292,0.0,0.0,49,0.00,,,0.00,WUHU21623XXSP,2013-08-18 19:10:00,
2013-08-18 15:15:00,81.3,59.7,30.65,WNW,292,0.0,0.0,48,0.00,,,0.00,WUHU21623XXSP,2013-08-18 19:15:00,
2013-08-18 15:20:00,81.0,59.5,30.65,WNW,292,0.0,0.0,48,0.00,,,0.00,WUHU21623XXSP,2013-08-18 19:20:00,
2013-08-18 15:25:00,81.1,60.7,30.65,North,0,0.0,0.0,50,0.00,,,0.00,WUHU21623XXSP,2013-08-18 19:25:00,
2013-08-18 15:30:00,81.0,60.0,30.65,North,0,0.0,0.0,49,0.00,,,0.00,WUHU21623XXSP,2013-08-18 19:30:00,
2013-08-18 15:35:00,81.1,60.1,30.65,North,0,0.0,0.0,49,0.00,,,0.00,WUHU21623XXSP,2013-08-18 19:35:00,
2013-08-18 15:40:00,81.3,60.3,30.64,North,0,0.0,0.0,49,0.00,,,0.00,WUHU21623XXSP,2013-08-18 19:40:00,
2013-08-18 15:45:00,81.7,60.6,30.64,NE,45,0.0,2.0,49,0.00,,,0.00,WUHU21623XXSP,2013-08-18 19:45:00,
2013-08-18 15:50:00,82.0,60.3,30.64,NE,45,0.0,2.0,48,0.00,,,0.00,WUHU21623XXSP,2013-08-18 19:50:00,
2013-08-18 15:55:00,82.0,60.3,30.64,NNE,22,0.0,0.0,49,0.00,,,0.00,WUHU21623XXSP,2013-08-18 19:55:00,
2013-08-18 16:00:00,82.0,59.1,30.64,North,0,0.0,2.5,46,0.00,,,0.00,WUHU21623XXSP,2013-08-18 20:00:00,
2013-08-18 16:05:00,81.9,58.9,30.64,North,0,0.0,2.5,46,0.00,,,0.00,WUHU21623XXSP,2013-08-18 20:05:00,
2013-08-18 16:10:00,81.7,58.8,30.64,NE,45,0.0,0.0,46,0.00,,,0.00,WUHU21623XXSP,2013-08-18 20:10:00,
2013-08-18 16:15:00,81.7,58.8,30.64,NNE,22,0.0,0.0,46,0.00,,,0.00,WUHU21623XXSP,2013-08-18 20:15:00,
2013-08-18 16:20:00,81.7,58.8,30.63,SSW,202,0.0,0.0,46,0.00,,,0.00,WUHU21623XXSP,2013-08-18 20:20:00,
2013-08-18 16:25:00,82.0,59.1,30.63,NNW,337,0.0,0.0,46,0.00,,,0.00,WUHU21623XXSP,2013-08-18 20:25:00,
2013-08-18 16:30:00,82.0,59.7,30.63,WSW,247,0.0,0.0,47,0.00,,,0.00,WUHU21623XXSP,2013-08-18 20:30:00,
2013-08-18 16:35:00,82.0,59.7,30.63,WNW,292,0.0,0.0,47,0.00,,,0.00,WUHU21623XXSP,2013-08-18 20:35:00,
2013-08-18 16:39:00,82.2,58.7,30.63,NNE,22,1.6,1.6,45,0.00,,,0.00,WUHU21623XXSP,2013-08-18 20:39:00,
2013-08-18 16:44:00,82.2,58.7,30.62,South,180,0.0,1.6,45,0.00,,,0.00,WUHU21623XXSP,2013-08-18 20:44:00,
2013-08-18 16:49:00,82.2,58.7,30.62,NNW,337,0.0,0.0,45,0.00,,,0.00,WUHU21623XXSP,2013-08-18 20:49:00,
2013-08-18 16:54:00,82.0,58.5,30.62,NW,315,0.0,0.0,45,0.00,,,0.00,WUHU21623XXSP,2013-08-18 20:54:00,
2013-08-18 16:59:00,82.0,58.5,30.63,NW,315,0.0,0.0,45,0.00,,,0.00,WUHU21623XXSP,2013-08-18 20:59:00,
2013-08-18 17:04:00,82.2,59.3,30.63,NW,315,0.0,0.0,46,0.00,,,0.00,WUHU21623XXSP,2013-08-18 21:04:00,
2013-08-18 17:09:00,82.4,58.8,30.62,North,0,0.0,0.0,45,0.00,,,0.00,WUHU21623XXSP,2013-08-18 21:09:00,
2013-08-18 17:14:00,82.2,59.3,30.62,North,0,0.0,0.0,46,0.00,,,0.00,WUHU21623XXSP,2013-08-18 21:14:00,
2013-08-18 17:19:00,82.4,58.2,30.61,SSE,157,0.0,0.0,44,0.00,,,0.00,WUHU21623XXSP,2013-08-18 21:19:00,
2013-08-18 17:24:00,82.2,59.3,30.62,ESE,112,0.0,0.0,46,0.00,,,0.00,WUHU21623XXSP,2013-08-18 21:24:00,
2013-08-18 17:29:00,82.8,59.8,30.61,ESE,112,0.0,0.0,46,0.00,,,0.00,WUHU21623XXSP,2013-08-18 21:29:00,
2013-08-18 17:34:00,82.9,59.3,30.61,ESE,112,0.0,0.0,45,0.00,,,0.00,WUHU21623XXSP,2013-08-18 21:34:00,
2013-08-18 17:39:00,82.9,58.7,30.61,North,0,0.0,0.0,44,0.00,,,0.00,WUHU21623XXSP,2013-08-18 21:39:00,
2013-08-18 17:44:00,82.4,57.6,30.62,NNW,337,0.0,0.0,43,0.00,,,0.00,WUHU21623XXSP,2013-08-18 21:44:00,
2013-08-18 17:49:00,82.2,58.0,30.61,NNW,337,0.0,0.0,44,0.00,,,0.00,WUHU21623XXSP,2013-08-18 21:49:00,
2013-08-18 17:54:00,82.4,58.8,30.61,WSW,247,0.0,0.0,45,0.00,,,0.00,WUHU21623XXSP,2013-08-18 21:54:00,
2013-08-18 17:59:00,82.2,58.0,30.61,West,270,0.0,0.0,44,0.00,,,0.00,WUHU21623XXSP,2013-08-18 21:59:00,
2013-08-18 18:04:00,82.0,57.9,30.61,WNW,292,0.0,0.0,44,0.00,,,0.00,WUHU21623XXSP,2013-08-18 22:04:00,
2013-08-18 18:09:00,82.0,57.9,30.61,NNW,337,0.0,0.0,44,0.00,,,0.00,WUHU21623XXSP,2013-08-18 22:09:00,
2013-08-18 18:14:00,81.7,58.2,30.61,West,270,0.0,0.0,45,0.00,,,0.00,WUHU21623XXSP,2013-08-18 22:14:00,
2013-08-18 18:19:00,81.7,58.2,30.62,West,270,0.0,0.0,45,0.00,,,0.00,WUHU21623XXSP,2013-08-18 22:19:00,
2013-08-18 18:24:00,81.3,58.5,30.61,West,270,0.0,0.0,46,0.00,,,0.00,WUHU21623XXSP,2013-08-18 22:24:00,
2013-08-18 18:29:00,81.1,57.7,30.61,North,0,0.0,0.0,45,0.00,,,0.00,WUHU21623XXSP,2013-08-18 22:29:00,
2013-08-18 18:34:00,80.4,57.0,30.61,North,0,0.0,0.0,45,0.00,,,0.00,WUHU21623XXSP,2013-08-18 22:34:00,
2013-08-18 18:39:00,80.1,57.3,30.61,NNE,22,0.0,0.0,46,0.00,,,0.00,WUHU21623XXSP,2013-08-18 22:39:00,
2013-08-18 18:44:00,79.7,57.0,30.61,NW,315,0.0,0.0,46,0.00,,,0.00,WUHU21623XXSP,2013-08-18 22:44:00,
2013-08-18 18:49:00,79.3,56.7,30.61,NW,315,0.0,0.0,46,0.00,,,0.00,WUHU21623XXSP,2013-08-18 22:49:00,
2013-08-18 18:54:00,79.0,55.7,30.61,NW,315,0.0,0.0,45,0.00,,,0.00,WUHU21623XXSP,2013-08-18 22:54:00,
2013-08-18 18:59:00,78.6,55.4,30.61,NW,315,0.0,0.0,45,0.00,,,0.00,WUHU21623XXSP,2013-08-18 22:59:00,
2013-08-18 19:04:00,78.4,55.9,30.61,NW,315,0.0,0.0,46,0.00,,,0.00,WUHU21623XXSP,2013-08-18 23:04:00,
2013-08-18 19:09:00,78.1,55.5,30.61,West,270,0.0,0.0,46,0.00,,,0.00,WUHU21623XXSP,2013-08-18 23:09:00,
2013-08-18 19:14:00,77.7,55.2,30.61,West,270,0.0,0.0,46,0.00,,,0.00,WUHU21623XXSP,2013-08-18 23:14:00,
2013-08-18 19:19:00,77.5,55.7,30.61,West,270,0.0,0.0,47,0.00,,,0.00,WUHU21623XXSP,2013-08-18 23:19:00,
2013-08-18 19:24:00,77.2,56.0,30.61,West,270,0.0,0.0,48,0.00,,,0.00,WUHU21623XXSP,2013-08-18 23:24:00,
2013-08-18 19:29:00,77.0,55.8,30.61,West,270,0.0,0.0,48,0.00,,,0.00,WUHU21623XXSP,2013-08-18 23:29:00,
2013-08-18 19:34:00,76.5,55.9,30.61,West,270,0.0,0.0,49,0.00,,,0.00,WUHU21623XXSP,2013-08-18 23:34:00,
2013-08-18 19:39:00,76.3,56.4,30.61,West,270,0.0,0.0,50,0.00,,,0.00,WUHU21623XXSP,2013-08-18 23:39:00,
2013-08-18 19:44:00,75.9,56.0,30.61,West,270,0.0,0.0,50,0.00,,,0.00,WUHU21623XXSP,2013-08-18 23:44:00,
2013-08-18 19:49:00,75.4,56.1,30.61,West,270,0.0,0.0,51,0.00,,,0.00,WUHU21623XXSP,2013-08-18 23:49:00,
2013-08-18 19:54:00,75.0,56.2,30.61,West,270,0.0,0.0,52,0.00,,,0.00,WUHU21623XXSP,2013-08-18 23:54:00,
2013-08-18 19:59:00,74.8,56.0,30.60,West,270,0.0,0.0,52,0.00,,,0.00,WUHU21623XXSP,2013-08-18 23:59:00,
2013-08-18 20:04:00,73.9,55.7,30.61,West,270,0.0,0.0,53,0.00,,,0.00,WUHU21623XXSP,2013-08-19 00:04:00,
2013-08-18 20:09:00,73.8,55.5,30.61,West,270,0.0,0.0,53,0.00,,,0.00,WUHU21623XXSP,2013-08-19 00:09:00,
2013-08-18 20:14:00,73.2,55.5,30.60,West,270,0.0,0.0,54,0.00,,,0.00,WUHU21623XXSP,2013-08-19 00:14:00,
2013-08-18 20:19:00,72.9,55.3,30.60,West,270,0.0,0.0,55,0.00,,,0.00,WUHU21623XXSP,2013-08-19 00:19:00,
2013-08-18 20:24:00,72.5,55.3,30.60,West,270,0.0,0.0,55,0.00,,,0.00,WUHU21623XXSP,2013-08-19 00:24:00,
2013-08-18 20:29:00,72.1,55.5,30.60,West,270,0.0,0.0,56,0.00,,,0.00,WUHU21623XXSP,2013-08-19 00:29:00,
2013-08-18 20:34:00,71.8,55.7,30.60,West,270,0.0,0.0,57,0.00,,,0.00,WUHU21623XXSP,2013-08-19 00:34:00,
2013-08-18 20:39:00,71.4,55.9,30.60,West,270,0.0,0.0,58,0.00,,,0.00,WUHU21623XXSP,2013-08-19 00:39:00,
2013-08-18 20:44:00,70.9,55.9,30.60,West,270,0.0,0.0,59,0.00,,,0.00,WUHU21623XXSP,2013-08-19 00:44:00,
2013-08-18 20:49:00,70.3,55.4,30.60,West,270,0.0,0.0,59,0.00,,,0.00,WUHU21623XXSP,2013-08-19 00:49:00,
2013-08-18 20:54:00,69.8,55.4,30.60,West,270,0.0,0.0,60,0.00,,,0.00,WUHU21623XXSP,2013-08-19 00:54:00,
2013-08-18 20:59:00,69.4,55.0,30.60,West,270,0.0,0.0,60,0.00,,,0.00,WUHU21623XXSP,2013-08-19 00:59:00,
2013-08-18 21:04:00,68.9,54.9,30.60,West,270,0.0,0.0,61,0.00,,,0.00,WUHU21623XXSP,2013-08-19 01:04:00,
2013-08-18 21:09:00,68.5,54.6,30.60,West,270,0.0,0.0,61,0.00,,,0.00,WUHU21623XXSP,2013-08-19 01:09:00,
2013-08-18 21:14:00,68.2,54.6,30.60,West,270,0.0,0.0,62,0.00,,,0.00,WUHU21623XXSP,2013-08-19 01:14:00,
2013-08-18 21:19:00,67.8,54.7,30.60,West,270,0.0,0.0,63,0.00,,,0.00,WUHU21623XXSP,2013-08-19 01:19:00,
2013-08-18 21:24:00,67.6,54.6,30.60,West,270,0.0,0.0,63,0.00,,,0.00,WUHU21623XXSP,2013-08-19 01:24:00,
2013-08-18 21:29:00,67.3,54.6,30.60,West,270,0.0,0.0,64,0.00,,,0.00,WUHU21623XXSP,2013-08-19 01:29:00,
2013-08-18 21:34:00,66.9,54.3,30.60,West,270,0.0,0.0,64,0.00,,,0.00,WUHU21623XXSP,2013-08-19 01:34:00,
2013-08-18 21:39:00,66.7,54.6,30.60,West,270,0.0,0.0,65,0.00,,,0.00,WUHU21623XXSP,2013-08-19 01:39:00,
2013-08-18 21:44:00,66.4,54.2,30.60,West,270,0.0,0.0,65,0.00,,,0.00,WUHU21623XXSP,2013-08-19 01:44:00,
2013-08-18 21:49:00,66.0,54.3,30.61,West,270,0.0,0.0,66,0.00,,,0.00,WUHU21623XXSP,2013-08-19 01:49:00,
2013-08-18 21:54:00,65.8,54.5,30.61,West,270,0.0,0.0,67,0.00,,,0.00,WUHU21623XXSP,2013-08-19 01:54:00,
2013-08-18 21:59:00,65.7,54.4,30.60,West,270,0.0,0.0,67,0.00,,,0.00,WUHU21623XXSP,2013-08-19 01:59:00,
2013-08-18 22:04:00,65.1,53.9,30.61,West,270,0.0,0.0,67,0.00,,,0.00,WUHU21623XXSP,2013-08-19 02:04:00,
2013-08-18 22:09:00,64.9,53.7,30.61,West,270,0.0,0.0,67,0.00,,,0.00,WUHU21623XXSP,2013-08-19 02:09:00,
2013-08-18 22:14:00,64.8,54.0,30.61,WNW,292,0.0,0.0,68,0.00,,,0.00,WUHU21623XXSP,2013-08-19 02:14:00,
2013-08-18 22:19:00,64.6,54.2,30.60,NNW,337,0.0,0.0,69,0.00,,,0.00,WUHU21623XXSP,2013-08-19 02:19:00,
2013-08-18 22:24:00,64.4,54.5,30.61,NNW,337,0.0,0.0,70,0.00,,,0.00,WUHU21623XXSP,2013-08-19 02:24:00,
2013-08-18 22:29:00,64.2,54.3,30.60,NNE,22,0.0,0.0,70,0.00,,,0.00,WUHU21623XXSP,2013-08-19 02:29:00,
2013-08-18 22:34:00,64.0,54.5,30.61,NNE,22,0.0,0.0,71,0.00,,,0.00,WUHU21623XXSP,2013-08-19 02:34:00,
2013-08-18 22:39:00,64.0,54.9,30.60,NNE,22,0.0,0.0,72,0.00,,,0.00,WUHU21623XXSP,2013-08-19 02:39:00,
2013-08-18 22:44:00,63.7,54.5,30.60,NNE,22,0.0,0.0,72,0.00,,,0.00,WUHU21623XXSP,2013-08-19 02:44:00,
2013-08-18 22:49:00,63.5,54.3,30.60,NNE,22,0.0,0.0,72,0.00,,,0.00,WUHU21623XXSP,2013-08-19 02:49:00,
2013-08-18 22:54:00,63.3,54.1,30.61,NNE,22,0.0,0.0,72,0.00,,,0.00,WUHU21623XXSP,2013-08-19 02:54:00,
2013-08-18 22:59:00,63.1,54.0,30.61,NNE,22,0.0,0.0,72,0.00,,,0.00,WUHU21623XXSP,2013-08-19 02:59:00,
2013-08-18 23:04:00,62.8,53.6,30.61,NNE,22,0.0,0.0,72,0.00,,,0.00,WUHU21623XXSP,2013-08-19 03:04:00,
2013-08-18 23:09:00,62.6,53.8,30.61,NNE,22,0.0,0.0,73,0.00,,,0.00,WUHU21623XXSP,2013-08-19 03:09:00,
2013-08-18 23:14:00,62.4,53.6,30.60,NNE,22,0.0,0.0,73,0.00,,,0.00,WUHU21623XXSP,2013-08-19 03:14:00,
2013-08-18 23:19:00,62.2,53.5,30.60,NNE,22,0.0,0.0,73,0.00,,,0.00,WUHU21623XXSP,2013-08-19 03:19:00,
2013-08-18 23:24:00,62.2,53.5,30.60,NNE,22,0.0,0.0,73,0.00,,,0.00,WUHU21623XXSP,2013-08-19 03:24:00,
2013-08-18 23:29:00,61.9,53.5,30.60,NNE,22,0.0,0.0,74,0.00,,,0.00,WUHU21623XXSP,2013-08-19 03:29:00,
2013-08-18 23:34:00,61.7,53.3,30.60,NNE,22,0.0,0.0,74,0.00,,,0.00,WUHU21623XXSP,2013-08-19 03:34:00,
2013-08-18 23:39:00,61.5,53.2,30.60,NNE,22,0.0,0.0,74,0.00,,,0.00,WUHU21623XXSP,2013-08-19 03:39:00,
2013-08-18 23:44:00,61.5,53.2,30.61,NNE,22,0.0,0.0,74,0.00,,,0.00,WUHU21623XXSP,2013-08-19 03:44:00,
2013-08-18 23:49:00,61.3,53.4,30.60,NNE,22,0.0,0.0,75,0.00,,,0.00,WUHU21623XXSP,2013-08-19 03:49:00,
2013-08-18 23:54:00,61.2,53.2,30.60,NNE,22,0.0,0.0,75,0.00,,,0.00,WUHU21623XXSP,2013-08-19 03:54:00,
2013-08-18 23:59:00,61.2,53.2,30.61,NNE,22,0.0,0.0,75,0.00,,,0.00,WUHU21623XXSP,2013-08-19 03:59:00,